KK4OHF Weather Reports


time (UTC)temp
C
wind
direction
speed
KPH
gust
KPH
rain 1hr
cm
rain 24hr
cm
rain mn
cm
humidity
%
barometer
mb
20260504232005 23 153 1.6 4.8 0.00 0.00 0.00 39 1013.2
20260504231505 23 14 1.6 4.8 0.00 0.00 0.00 39 1013.2
20260504231006 23 142 3.2 9.7 0.00 0.00 0.00 38 1013.2
20260504230505 23 126 1.6 4.8 0.00 0.00 0.00 37 1013.2
20260504230005 23 122 1.6 4.8 0.00 0.00 0.00 37 1013.2
20260504225506 24 253 1.6 4.8 0.00 0.00 0.00 37 1013.2
20260504225006 24 131 3.2 8.0 0.00 0.00 0.00 36 1013.2
20260504224006 24 78 1.6 4.8 0.00 0.00 0.00 36 1013.2
20260504223505 24 197 1.6 4.8 0.00 0.00 0.00 36 1013.2
20260504223005 24 181 1.6 4.8 0.00 0.00 0.00 36 1013.2
20260504222505 25 193 1.6 4.8 0.00 0.00 0.00 35 1013.2
20260504222006 25 145 1.6 4.8 0.00 0.00 0.00 36 1013.2
20260504221505 25 206 1.6 4.8 0.00 0.00 0.00 35 1013.2
20260504221006 25 65 1.6 9.7 0.00 0.00 0.00 36 1013.2
20260504220505 25 103 1.6 4.8 0.00 0.00 0.00 36 1013.2
20260504220005 25 11 0.0 8.0 0.00 0.00 0.00 36 1013.1
20260504215504 25 168 1.6 4.8 0.00 0.00 0.00 36 1013.1
20260504214005 25 126 3.2 11.3 0.00 0.00 0.00 37 1013.1
20260504213506 25 193 3.2 11.3 0.00 0.00 0.00 38 1013.1
20260504213007 25 79 1.6 11.3 0.00 0.00 0.00 39 1013.1
20260504212005 25 219 1.6 8.0 0.00 0.00 0.00 40 1013.1
20260504211505 25 52 0.0 3.2 0.00 0.00 0.00 40 1013.1
20260504211005 25 109 0.0 3.2 0.00 0.00 0.00 39 1013.1
20260504210505 26 74 0.0 8.0 0.00 0.00 0.00 41 1013.1
20260504205505 25 299 1.6 4.8 0.00 0.00 0.00 39 1013.1
20260504205005 25 290 1.6 4.8 0.00 0.00 0.00 35 1013.1
20260504204005 26 211 1.6 8.0 0.00 0.00 0.00 36 1013.7
20260504203506 26 153 0.0 4.8 0.00 0.00 0.00 36 1013.7
20260504203005 26 158 1.6 3.2 0.00 0.00 0.00 35 1013.7
20260504202505 26 12 1.6 3.2 0.00 0.00 0.00 35 1013.7
20260504202005 27 173 0.0 4.8 0.00 0.00 0.00 33 1013.7
20260504201505 26 124 3.2 4.8 0.00 0.00 0.00 33 1013.7
20260504201005 26 168 1.6 4.8 0.00 0.00 0.00 31 1013.7
20260504200505 26 144 1.6 4.8 0.00 0.00 0.00 30 1013.7
20260504200005 26 53 0.0 4.8 0.00 0.00 0.00 31 1013.7
20260504195504 27 100 1.6 4.8 0.00 0.00 0.00 29 1013.7
20260504195006 27 113 0.0 9.7 0.00 0.00 0.00 32 1014.6
20260504194506 26 124 1.6 9.7 0.00 0.00 0.00 35 1014.6
20260504194005 26 278 0.0 8.0 0.00 0.00 0.00 34 1014.6
20260504193507 26 131 1.6 8.0 0.00 0.00 0.00 34 1014.6
20260504192504 25 257 1.6 4.8 0.00 0.00 0.00 37 1014.6
20260504191505 26 274 1.6 4.8 0.00 0.00 0.00 39 1014.6
20260504191005 26 247 3.2 11.3 0.00 0.00 0.00 37 1014.6
20260504190505 26 252 3.2 4.8 0.00 0.00 0.00 37 1014.6
20260504190006 25 293 1.6 4.8 0.00 0.00 0.00 37 1017.3
20260504185005 25 359 1.6 4.8 0.00 0.00 0.00 38 1017.3
20260504184505 26 210 1.6 4.8 0.00 0.00 0.00 39 1017.3
20260504184007 26 135 3.2 8.0 0.00 0.00 0.00 38 1017.3
20260504183505 25 91 3.2 9.7 0.00 0.00 0.00 40 1017.3
20260504183005 25 276 1.6 8.0 0.00 0.00 0.00 41 1017.3
20260504182505 25 170 0.0 3.2 0.00 0.00 0.00 42 1017.3
20260504181505 25 10 0.0 8.0 0.00 0.00 0.00 42 1017.3
20260504181005 25 241 3.2 9.7 0.00 0.00 0.00 41 1017.3
20260504180506 25 198 1.6 8.0 0.00 0.00 0.00 44 1017.3
20260504180005 25 197 1.6 8.0 0.00 0.00 0.00 44 1017.3
20260504175505 25 280 0.0 11.3 0.00 0.00 0.00 44 1017.3
20260504175005 25 235 0.0 4.8 0.00 0.00 0.00 43 1017.3
20260504174505 25 13 1.6 11.3 0.00 0.00 0.00 44 1017.3
20260504174006 25 97 1.6 4.8 0.00 0.00 0.00 45 1017.3
20260504173505 25 344 0.0 0.0 0.00 0.00 0.00 45 1017.3
20260504173006 23 69 0.0 0.0 0.00 0.00 0.00 46 1017.3
20260504172006 24 254 0.0 0.0 0.00 0.00 0.00 45 1017.3
20260504171504 23 46 1.6 4.8 0.00 0.00 0.00 47 1017.3
20260504171005 23 260 0.0 4.8 0.00 0.00 0.00 48 1017.3
20260504170505 22 30 0.0 4.8 0.00 0.00 0.00 47 1017.3
20260504151006 21 217 0.0 11.3 0.00 0.00 0.00 50 1017.3
20260504150505 21 155 0.0 9.7 0.00 0.00 0.00 53 1017.3
20260504140505 17 289 3.2 8.0 0.00 0.00 0.00 58 1016.7
20260504130505 12 246 0.0 1.6 0.00 0.00 0.00 83 1016.7
20260504110507 5 281 0.0 0.0 0.00 0.00 0.00 93 1016.7
20260504100505 5 281 0.0 0.0 0.00 0.00 0.00 93 1016.4
20260504082005 5 281 0.0 0.0 0.00 0.00 0.00 92 1016.4
20260504081505 5 281 0.0 0.0 0.00 0.00 0.00 92 1016.4
20260504080505 6 281 0.0 0.0 0.00 0.00 0.00 92 1016.8
20260504050505 7 281 0.0 0.0 0.00 0.00 0.00 90 1017.4
20260504050005 7 281 0.0 0.0 0.00 0.00 0.00 90 1016.3
20260504045005 8 281 0.0 0.0 0.00 0.00 0.00 89 1016.3
20260504044505 8 281 0.0 0.0 0.00 0.00 0.00 89 1016.3
20260504044005 8 281 0.0 0.0 0.00 0.00 0.00 89 1016.3
20260504043505 8 281 0.0 0.0 0.00 0.00 0.00 89 1016.3
20260504042505 8 281 0.0 0.0 0.00 0.00 0.00 89 1016.3
20260504042006 8 281 0.0 0.0 0.00 0.00 0.00 89 1016.3
20260504041506 8 281 0.0 0.0 0.00 0.00 0.00 89 1016.3
20260504041005 8 281 0.0 0.0 0.00 0.00 0.00 88 1016.3
20260504040507 8 281 0.0 0.0 0.00 0.00 0.00 88 1016.3
20260504040006 8 281 0.0 0.0 0.00 0.00 0.00 88 1016.3
20260504035006 9 281 0.0 0.0 0.00 0.00 0.00 87 1016.3
20260504034506 9 281 0.0 0.0 0.00 0.00 0.00 87 1016.3
20260504033506 9 281 0.0 0.0 0.00 0.00 0.00 86 1016.3
20260504032504 10 281 0.0 0.0 0.00 0.00 0.00 86 1016.3
20260504032006 10 281 0.0 0.0 0.00 0.00 0.00 86 1016.3
20260504031506 10 281 0.0 0.0 0.00 0.00 0.00 85 1016.3
20260504031005 10 281 0.0 0.0 0.00 0.00 0.00 85 1016.3
20260504030506 10 281 0.0 0.0 0.00 0.00 0.00 85 1016.3
20260504030006 10 281 0.0 0.0 0.00 0.00 0.00 84 1016.3
20260504025505 10 281 0.0 0.0 0.00 0.00 0.00 84 1016.3
20260504025006 10 281 0.0 0.0 0.00 0.00 0.00 83 1016.3
20260504024004 11 281 0.0 0.0 0.00 0.00 0.00 82 1016.3
20260504023506 11 281 0.0 0.0 0.00 0.00 0.00 82 1016.3
20260504022505 11 281 0.0 0.0 0.00 0.00 0.00 81 1016.3
20260504021504 11 281 0.0 0.0 0.00 0.00 0.00 79 1016.3
20260504021007 11 281 0.0 0.0 0.00 0.00 0.00 79 1016.3
20260504015006 12 281 0.0 0.0 0.00 0.00 0.00 76 1016.3
20260504014505 12 281 0.0 0.0 0.00 0.00 0.00 75 1016.3
20260504014005 12 281 0.0 0.0 0.00 0.00 0.00 74 1016.3
20260504013505 12 281 0.0 0.0 0.00 0.00 0.00 73 1016.3
20260504013005 13 281 0.0 0.0 0.00 0.00 0.00 72 1016.3
20260504012005 13 281 0.0 0.0 0.00 0.00 0.00 71 1016.3
20260504011505 13 281 0.0 0.0 0.00 0.00 0.00 70 1016.3
20260504011006 13 281 0.0 0.0 0.00 0.00 0.00 68 1016.3
20260504010506 14 281 0.0 0.0 0.00 0.00 0.00 67 1016.3
20260504010006 14 281 0.0 0.0 0.00 0.00 0.00 66 1016.3
20260504005505 15 281 0.0 0.0 0.00 0.00 0.00 65 1016.3
20260504004505 15 281 0.0 0.0 0.00 0.00 0.00 61 1016.2
20260504004006 15 281 0.0 0.0 0.00 0.00 0.00 59 1016.2
20260504003506 16 281 0.0 0.0 0.00 0.00 0.00 57 1016.2
20260504003006 16 281 0.0 0.0 0.00 0.00 0.00 54 1016.2
20260504002505 16 281 0.0 0.0 0.00 0.00 0.00 51 1016.2
20260504002006 17 281 0.0 3.2 0.00 0.00 0.00 50 1016.2
20260504001505 17 293 3.2 4.8 0.00 0.00 0.00 48 1016.2
20260504001005 17 311 0.0 3.2 0.00 0.00 0.00 47 1016.2
20260504000505 18 310 1.6 4.8 0.00 0.00 0.00 45 1016.2
20260504000005 18 279 0.0 4.8 0.00 0.00 0.00 44 1016.2
20260503235004 18 291 3.2 8.0 0.00 0.00 0.00 42 1016.2
20260503234506 18 284 3.2 9.7 0.00 0.00 0.00 41 1016.2
20260503234006 18 279 0.0 4.8 0.00 0.00 0.00 43 1016.2
20260503233506 18 262 1.6 8.0 0.00 0.00 0.00 40 1016.2
20260503233005 19 285 4.8 8.0 0.00 0.00 0.00 39 1016.2
20260503232504 19 285 1.6 3.2 0.00 0.00 0.00 39 1016.2